Time,TemperatureF,DewpointF,PressureIn,WindDirection,WindDirectionDegrees,WindSpeedMPH,WindSpeedGustMPH,Humidity,HourlyPrecipIn,Conditions,Clouds,dailyrainin,SoftwareType,DateUTC
2013-05-22 00:06:00,71.8,68.4,30.00,ESE,120,0.0,0.0,89,0.00,,,0.00,VWS V14.00,2013-05-22 04:06:00,
2013-05-22 00:07:00,71.8,68.4,30.00,ESE,120,0.0,0.0,89,0.00,,,0.00,VWS V14.00,2013-05-22 04:07:00,
2013-05-22 00:08:00,71.8,68.4,30.00,ESE,120,0.0,0.0,89,0.00,,,0.00,VWS V14.00,2013-05-22 04:08:00,
2013-05-22 00:13:00,71.6,68.2,30.00,SE,142,0.0,0.0,89,0.00,,,0.00,VWS V14.00,2013-05-22 04:13:00,
2013-05-22 00:18:00,71.4,68.0,30.00,ESE,120,0.0,0.0,89,0.00,,,0.00,VWS V14.00,2013-05-22 04:18:00,
2013-05-22 00:23:00,71.4,68.0,30.00,ESE,120,0.0,0.0,89,0.00,,,0.00,VWS V14.00,2013-05-22 04:23:00,
2013-05-22 00:28:00,71.4,68.0,30.00,SE,142,0.0,0.0,89,0.00,,,0.00,VWS V14.00,2013-05-22 04:28:00,
2013-05-22 00:33:00,71.2,67.8,30.00,ESE,120,0.0,0.0,89,0.00,,,0.00,VWS V14.00,2013-05-22 04:33:00,
2013-05-22 00:39:00,71.2,67.8,30.00,ESE,120,0.0,0.0,89,0.00,,,0.00,VWS V14.00,2013-05-22 04:39:00,
2013-05-22 00:44:00,71.2,67.8,30.00,SW,232,0.0,0.0,89,0.00,,,0.00,VWS V14.00,2013-05-22 04:44:00,
2013-05-22 00:49:00,71.2,67.8,30.00,SSE,165,0.0,0.0,89,0.00,,,0.00,VWS V14.00,2013-05-22 04:49:00,
2013-05-22 00:54:00,71.2,67.8,30.00,SSE,165,0.0,0.0,89,0.00,,,0.00,VWS V14.00,2013-05-22 04:54:00,
2013-05-22 00:59:00,71.2,67.8,30.00,SSE,165,0.0,0.0,89,0.00,,,0.00,VWS V14.00,2013-05-22 04:59:00,
2013-05-22 01:04:00,71.4,68.0,30.00,WSW,255,0.0,0.0,89,0.00,,,0.00,VWS V14.00,2013-05-22 05:04:00,
2013-05-22 01:09:00,71.4,68.0,30.00,WSW,255,0.0,0.0,89,0.00,,,0.00,VWS V14.00,2013-05-22 05:09:00,
2013-05-22 01:14:00,71.4,68.0,30.00,WSW,255,0.0,0.0,89,0.00,,,0.00,VWS V14.00,2013-05-22 05:14:00,
2013-05-22 01:19:00,71.4,68.0,30.00,SW,232,0.0,0.0,89,0.00,,,0.00,VWS V14.00,2013-05-22 05:19:00,
2013-05-22 01:24:00,71.2,67.8,30.00,ESE,120,0.0,0.0,89,0.00,,,0.00,VWS V14.00,2013-05-22 05:24:00,
2013-05-22 01:29:00,71.2,67.8,30.00,SE,142,0.0,0.0,89,0.00,,,0.00,VWS V14.00,2013-05-22 05:29:00,
2013-05-22 01:34:00,71.2,67.8,30.00,SE,142,0.0,0.0,89,0.00,,,0.00,VWS V14.00,2013-05-22 05:34:00,
2013-05-22 01:40:00,71.1,67.7,30.00,ESE,120,0.9,0.9,89,0.00,,,0.00,VWS V14.00,2013-05-22 05:40:00,
2013-05-22 01:45:00,71.1,67.7,30.00,ESE,120,0.0,0.0,89,0.00,,,0.00,VWS V14.00,2013-05-22 05:45:00,
2013-05-22 01:50:00,70.9,67.5,30.00,SE,142,0.0,0.0,89,0.00,,,0.00,VWS V14.00,2013-05-22 05:50:00,
2013-05-22 01:55:00,70.7,67.0,30.00,SE,142,0.0,0.0,88,0.00,,,0.00,VWS V14.00,2013-05-22 05:55:00,
2013-05-22 02:00:00,70.7,67.3,30.00,SE,142,0.0,0.0,89,0.00,,,0.00,VWS V14.00,2013-05-22 06:00:00,
2013-05-22 02:05:00,70.5,67.1,30.00,ESE,120,0.0,0.0,89,0.00,,,0.00,VWS V14.00,2013-05-22 06:05:00,
2013-05-22 02:10:00,70.5,67.1,29.97,SE,142,0.0,0.0,89,0.00,,,0.00,VWS V14.00,2013-05-22 06:10:00,
2013-05-22 02:15:00,70.3,67.3,29.97,East,98,0.0,0.0,90,0.00,,,0.00,VWS V14.00,2013-05-22 06:15:00,
2013-05-22 02:20:00,70.3,67.3,29.97,ESE,120,0.0,0.0,90,0.00,,,0.00,VWS V14.00,2013-05-22 06:20:00,
2013-05-22 02:25:00,70.3,67.3,29.97,ESE,120,0.0,0.0,90,0.00,,,0.00,VWS V14.00,2013-05-22 06:25:00,
2013-05-22 02:30:00,70.2,67.1,29.97,ESE,120,0.0,0.0,90,0.00,,,0.00,VWS V14.00,2013-05-22 06:30:00,
2013-05-22 02:35:00,70.0,67.2,29.97,ESE,120,1.6,2.5,91,0.00,,,0.00,VWS V14.00,2013-05-22 06:35:00,
2013-05-22 02:41:00,70.0,67.2,29.94,ESE,120,0.0,0.0,91,0.00,,,0.00,VWS V14.00,2013-05-22 06:41:00,
2013-05-22 02:46:00,69.8,67.1,29.94,ESE,120,0.0,0.0,91,0.00,,,0.00,VWS V14.00,2013-05-22 06:46:00,
2013-05-22 02:51:00,69.8,67.1,29.94,ESE,120,0.0,0.0,91,0.00,,,0.00,VWS V14.00,2013-05-22 06:51:00,
2013-05-22 03:10:00,69.6,67.8,29.91,ESE,120,0.0,2.2,94,0.00,,,0.00,VWS V14.00,2013-05-22 07:10:00,
2013-05-22 03:15:00,69.4,67.3,29.91,ESE,120,0.0,0.0,93,0.00,,,0.00,VWS V14.00,2013-05-22 07:15:00,
2013-05-22 03:20:00,69.4,67.3,29.91,ESE,120,0.0,1.6,93,0.00,,,0.00,VWS V14.00,2013-05-22 07:20:00,
2013-05-22 03:25:00,69.3,67.5,29.94,ESE,120,0.0,1.1,94,0.00,,,0.00,VWS V14.00,2013-05-22 07:25:00,
2013-05-22 03:30:00,69.3,67.5,29.94,ESE,120,3.1,3.1,94,0.00,,,0.00,VWS V14.00,2013-05-22 07:30:00,
2013-05-22 03:35:00,69.3,67.8,29.94,ESE,120,1.3,5.4,95,0.00,,,0.00,VWS V14.00,2013-05-22 07:35:00,
2013-05-22 03:40:00,69.1,67.6,29.94,SE,142,1.6,3.4,95,0.00,,,0.00,VWS V14.00,2013-05-22 07:40:00,
2013-05-22 03:45:00,69.1,67.3,29.94,East,98,2.2,3.1,94,0.00,,,0.00,VWS V14.00,2013-05-22 07:45:00,
2013-05-22 03:50:00,69.1,67.3,29.94,SE,142,0.0,0.0,94,0.00,,,0.00,VWS V14.00,2013-05-22 07:50:00,
2013-05-22 03:56:00,68.9,67.1,29.94,ESE,120,1.6,2.5,94,0.00,,,0.00,VWS V14.00,2013-05-22 07:56:00,
2013-05-22 04:01:00,68.9,67.1,29.94,SE,142,0.0,0.0,94,0.00,,,0.00,VWS V14.00,2013-05-22 08:01:00,
2013-05-22 04:06:00,68.7,66.9,29.94,ESE,120,2.0,2.2,94,0.00,,,0.00,VWS V14.00,2013-05-22 08:06:00,
2013-05-22 04:11:00,68.7,66.9,29.91,ESE,120,0.0,2.9,94,0.00,,,0.00,VWS V14.00,2013-05-22 08:11:00,
2013-05-22 04:16:00,68.7,66.9,29.91,ESE,120,0.0,1.6,94,0.00,,,0.00,VWS V14.00,2013-05-22 08:16:00,
2013-05-22 04:21:00,68.7,66.9,29.91,East,98,0.0,2.0,94,0.00,,,0.00,VWS V14.00,2013-05-22 08:21:00,
2013-05-22 04:26:00,68.7,66.9,29.94,SE,142,0.0,1.1,94,0.00,,,0.00,VWS V14.00,2013-05-22 08:26:00,
2013-05-22 04:31:00,68.7,66.9,29.94,SE,142,0.0,1.1,94,0.00,,,0.00,VWS V14.00,2013-05-22 08:31:00,
2013-05-22 04:36:00,68.7,66.9,29.94,East,98,0.9,1.1,94,0.00,,,0.00,VWS V14.00,2013-05-22 08:36:00,
2013-05-22 04:41:00,68.7,66.9,29.94,East,98,2.0,2.0,94,0.00,,,0.00,VWS V14.00,2013-05-22 08:41:00,
2013-05-22 04:46:00,68.7,66.9,29.94,East,98,1.1,1.1,94,0.00,,,0.00,VWS V14.00,2013-05-22 08:46:00,
2013-05-22 04:51:00,68.7,66.9,29.94,SE,142,1.1,1.6,94,0.00,,,0.00,VWS V14.00,2013-05-22 08:51:00,
2013-05-22 04:57:00,68.7,66.6,29.94,East,98,1.3,2.0,93,0.00,,,0.00,VWS V14.00,2013-05-22 08:57:00,
2013-05-22 05:02:00,68.5,66.4,29.94,SE,142,0.0,0.0,93,0.00,,,0.00,VWS V14.00,2013-05-22 09:02:00,
2013-05-22 05:07:00,68.5,66.4,29.94,SE,142,0.0,2.0,93,0.00,,,0.00,VWS V14.00,2013-05-22 09:07:00,
2013-05-22 05:12:00,68.5,66.4,29.94,SE,142,0.0,0.0,93,0.00,,,0.00,VWS V14.00,2013-05-22 09:12:00,
2013-05-22 05:17:00,68.4,66.3,29.94,SSE,165,0.0,0.0,93,0.00,,,0.00,VWS V14.00,2013-05-22 09:17:00,
2013-05-22 05:22:00,68.4,66.6,29.94,East,98,2.5,2.7,94,0.00,,,0.00,VWS V14.00,2013-05-22 09:22:00,
2013-05-22 05:27:00,68.4,66.6,29.94,East,98,0.0,2.5,94,0.00,,,0.00,VWS V14.00,2013-05-22 09:27:00,
2013-05-22 05:32:00,68.4,66.3,29.94,ESE,120,0.0,0.0,93,0.00,,,0.00,VWS V14.00,2013-05-22 09:32:00,
2013-05-22 05:37:00,68.4,66.3,29.94,SSE,165,0.0,0.0,93,0.00,,,0.00,VWS V14.00,2013-05-22 09:37:00,
2013-05-22 05:42:00,68.4,66.3,29.97,SE,142,0.0,0.0,93,0.00,,,0.00,VWS V14.00,2013-05-22 09:42:00,
2013-05-22 05:47:00,68.4,66.3,29.97,SSE,165,0.0,0.0,93,0.00,,,0.00,VWS V14.00,2013-05-22 09:47:00,
2013-05-22 05:52:00,68.4,66.3,29.97,East,98,0.0,0.0,93,0.00,,,0.00,VWS V14.00,2013-05-22 09:52:00,
2013-05-22 05:58:00,68.4,66.3,29.94,SSE,165,0.0,0.0,93,0.00,,,0.00,VWS V14.00,2013-05-22 09:58:00,
2013-05-22 06:06:00,68.4,66.3,29.94,ESE,120,0.0,0.0,93,0.00,,,0.00,VWS V14.00,2013-05-22 10:06:00,
2013-05-22 06:11:00,68.5,66.4,29.97,East,98,0.0,0.0,93,0.00,,,0.00,VWS V14.00,2013-05-22 10:11:00,
2013-05-22 06:16:00,68.5,66.4,29.97,East,98,0.0,0.0,93,0.00,,,0.00,VWS V14.00,2013-05-22 10:16:00,
2013-05-22 06:21:00,68.5,66.4,29.97,East,98,0.0,0.0,93,0.00,,,0.00,VWS V14.00,2013-05-22 10:21:00,
2013-05-22 06:26:00,68.5,66.4,30.00,SSE,165,0.0,0.0,93,0.00,,,0.00,VWS V14.00,2013-05-22 10:26:00,
2013-05-22 06:31:00,68.5,66.4,30.00,SSE,165,0.0,0.0,93,0.00,,,0.00,VWS V14.00,2013-05-22 10:31:00,
2013-05-22 06:36:00,68.5,66.4,30.00,SSE,165,0.0,0.0,93,0.00,,,0.00,VWS V14.00,2013-05-22 10:36:00,
2013-05-22 06:41:00,68.5,66.1,29.97,East,98,0.0,2.0,92,0.00,,,0.00,VWS V14.00,2013-05-22 10:41:00,
2013-05-22 06:46:00,68.7,66.3,29.97,East,98,0.0,0.0,92,0.00,,,0.00,VWS V14.00,2013-05-22 10:46:00,
2013-05-22 06:52:00,68.7,66.3,29.97,SW,232,0.0,0.0,92,0.00,,,0.00,VWS V14.00,2013-05-22 10:52:00,
2013-05-22 06:57:00,68.7,66.3,30.00,SW,232,0.0,0.0,92,0.00,,,0.00,VWS V14.00,2013-05-22 10:57:00,
2013-05-22 07:02:00,68.7,66.3,30.00,NW,322,0.0,2.2,92,0.00,,,0.00,VWS V14.00,2013-05-22 11:02:00,
2013-05-22 07:07:00,68.9,66.5,30.00,NW,322,0.0,0.0,92,0.00,,,0.00,VWS V14.00,2013-05-22 11:07:00,
2013-05-22 07:12:00,68.9,66.5,30.00,SSW,210,0.0,0.0,92,0.00,,,0.00,VWS V14.00,2013-05-22 11:12:00,
2013-05-22 07:17:00,68.9,66.5,30.00,East,98,0.0,0.0,92,0.00,,,0.00,VWS V14.00,2013-05-22 11:17:00,
2013-05-22 07:22:00,69.1,66.7,30.00,East,98,0.0,0.0,92,0.00,,,0.00,VWS V14.00,2013-05-22 11:22:00,
2013-05-22 07:27:00,69.3,66.8,30.00,SW,232,0.0,0.0,92,0.00,,,0.00,VWS V14.00,2013-05-22 11:27:00,
2013-05-22 07:32:00,69.3,66.8,30.00,WSW,255,0.0,0.0,92,0.00,,,0.00,VWS V14.00,2013-05-22 11:32:00,
2013-05-22 07:37:00,69.4,67.0,30.00,SE,142,0.0,2.2,92,0.00,,,0.00,VWS V14.00,2013-05-22 11:37:00,
2013-05-22 07:42:00,69.6,67.2,30.00,South,188,0.0,0.0,92,0.00,,,0.00,VWS V14.00,2013-05-22 11:42:00,
2013-05-22 07:47:00,69.8,67.1,30.00,ESE,120,2.5,2.5,91,0.00,,,0.00,VWS V14.00,2013-05-22 11:47:00,
2013-05-22 07:52:00,70.0,67.2,30.00,ESE,120,2.0,2.7,91,0.00,,,0.00,VWS V14.00,2013-05-22 11:52:00,
2013-05-22 07:57:00,70.2,67.1,30.00,ESE,120,0.0,0.0,90,0.00,,,0.00,VWS V14.00,2013-05-22 11:57:00,
2013-05-22 08:02:00,70.2,67.1,30.00,SE,142,0.0,1.6,90,0.00,,,0.00,VWS V14.00,2013-05-22 12:02:00,
2013-05-22 08:08:00,70.5,67.4,30.00,ESE,120,0.0,2.2,90,0.00,,,0.00,VWS V14.00,2013-05-22 12:08:00,
2013-05-22 08:13:00,70.5,67.4,29.97,WNW,300,0.0,2.9,90,0.00,,,0.00,VWS V14.00,2013-05-22 12:13:00,
2013-05-22 08:18:00,70.7,67.3,29.97,SW,232,0.0,1.3,89,0.00,,,0.00,VWS V14.00,2013-05-22 12:18:00,
2013-05-22 08:23:00,70.9,67.5,29.97,SSW,210,0.0,0.0,89,0.00,,,0.00,VWS V14.00,2013-05-22 12:23:00,
2013-05-22 08:28:00,71.1,67.7,30.00,SE,142,0.0,2.9,89,0.00,,,0.00,VWS V14.00,2013-05-22 12:28:00,
2013-05-22 08:33:00,71.2,67.5,30.00,East,98,2.0,2.7,88,0.00,,,0.00,VWS V14.00,2013-05-22 12:33:00,
2013-05-22 08:38:00,71.4,67.3,30.00,WSW,255,1.3,2.0,87,0.00,,,0.00,VWS V14.00,2013-05-22 12:38:00,
2013-05-22 08:43:00,71.6,67.2,30.00,WNW,300,0.0,2.0,86,0.00,,,0.00,VWS V14.00,2013-05-22 12:43:00,
2013-05-22 08:48:00,72.1,67.4,30.00,WNW,300,2.5,2.9,85,0.00,,,0.00,VWS V14.00,2013-05-22 12:48:00,
2013-05-22 08:53:00,71.8,67.0,30.03,NW,322,2.0,3.1,85,0.00,,,0.00,VWS V14.00,2013-05-22 12:53:00,
2013-05-22 08:58:00,71.8,67.0,30.03,NW,322,1.6,2.0,85,0.00,,,0.00,VWS V14.00,2013-05-22 12:58:00,
2013-05-22 09:03:00,71.6,66.9,30.03,SSW,210,0.0,2.7,85,0.00,,,0.00,VWS V14.00,2013-05-22 13:03:00,
2013-05-22 09:09:00,71.6,66.9,30.03,West,278,0.0,1.3,85,0.00,,,0.00,VWS V14.00,2013-05-22 13:09:00,
2013-05-22 09:14:00,71.8,66.3,30.03,SW,232,2.7,2.7,83,0.00,,,0.00,VWS V14.00,2013-05-22 13:14:00,
2013-05-22 09:19:00,72.1,67.0,30.03,West,278,1.6,2.0,84,0.00,,,0.00,VWS V14.00,2013-05-22 13:19:00,
2013-05-22 09:24:00,72.3,66.9,30.00,West,278,0.0,2.2,83,0.00,,,0.00,VWS V14.00,2013-05-22 13:24:00,
2013-05-22 09:29:00,73.0,67.2,30.00,South,188,1.6,3.1,82,0.00,,,0.00,VWS V14.00,2013-05-22 13:29:00,
2013-05-22 09:34:00,73.4,66.9,30.00,WNW,300,2.5,2.5,80,0.00,,,0.00,VWS V14.00,2013-05-22 13:34:00,
2013-05-22 09:39:00,73.2,66.7,30.00,WNW,300,2.0,2.0,80,0.00,,,0.00,VWS V14.00,2013-05-22 13:39:00,
2013-05-22 09:44:00,73.2,66.7,30.00,West,278,1.3,1.3,80,0.00,,,0.00,VWS V14.00,2013-05-22 13:44:00,
2013-05-22 09:49:00,73.0,66.5,30.00,NW,322,0.0,0.0,80,0.00,,,0.00,VWS V14.00,2013-05-22 13:49:00,
2013-05-22 09:54:00,73.4,66.9,30.03,WSW,255,1.1,1.1,80,0.00,,,0.00,VWS V14.00,2013-05-22 13:54:00,
2013-05-22 09:59:00,73.6,67.0,30.03,WSW,255,1.6,2.7,80,0.00,,,0.00,VWS V14.00,2013-05-22 13:59:00,
2013-05-22 10:04:00,73.9,67.0,30.03,WNW,300,0.0,0.0,79,0.00,,,0.00,VWS V14.00,2013-05-22 14:04:00,
2013-05-22 10:09:00,74.3,67.4,30.00,West,278,1.6,1.6,79,0.00,,,0.00,VWS V14.00,2013-05-22 14:09:00,
2013-05-22 10:14:00,74.1,67.2,30.00,NW,322,1.6,2.0,79,0.00,,,0.00,VWS V14.00,2013-05-22 14:14:00,
2013-05-22 10:19:00,74.1,67.2,30.00,NNW,345,0.0,0.0,79,0.00,,,0.00,VWS V14.00,2013-05-22 14:19:00,
2013-05-22 10:25:00,74.3,67.4,30.00,NNW,345,1.1,1.6,79,0.00,,,0.00,VWS V14.00,2013-05-22 14:25:00,
2013-05-22 10:30:00,74.5,66.8,30.00,SW,232,2.0,2.5,77,0.00,,,0.00,VWS V14.00,2013-05-22 14:30:00,
2013-05-22 10:35:00,74.8,67.5,30.00,SE,142,0.0,0.0,78,0.00,,,0.00,VWS V14.00,2013-05-22 14:35:00,
2013-05-22 10:40:00,74.8,67.5,30.00,NW,322,1.6,2.5,78,0.00,,,0.00,VWS V14.00,2013-05-22 14:40:00,
2013-05-22 10:45:00,75.4,67.7,30.00,West,278,0.0,1.6,77,0.00,,,0.00,VWS V14.00,2013-05-22 14:45:00,
2013-05-22 10:50:00,75.4,67.3,30.00,SSE,165,0.0,0.0,76,0.00,,,0.00,VWS V14.00,2013-05-22 14:50:00,
2013-05-22 10:55:00,76.1,67.6,30.00,ESE,120,3.1,3.6,75,0.00,,,0.00,VWS V14.00,2013-05-22 14:55:00,
2013-05-22 11:00:00,76.5,67.6,30.00,ENE,75,2.0,3.4,74,0.00,,,0.00,VWS V14.00,2013-05-22 15:00:00,
2013-05-22 11:05:00,76.8,68.3,30.00,SE,142,2.5,2.5,75,0.00,,,0.00,VWS V14.00,2013-05-22 15:05:00,
2013-05-22 11:10:00,76.6,67.3,30.00,South,188,1.3,1.6,73,0.00,,,0.00,VWS V14.00,2013-05-22 15:10:00,
2013-05-22 11:15:00,77.0,67.3,30.00,SE,142,2.7,4.3,72,0.00,,,0.00,VWS V14.00,2013-05-22 15:15:00,
2013-05-22 11:20:00,77.5,67.4,30.00,SE,142,2.0,4.5,71,0.00,,,0.00,VWS V14.00,2013-05-22 15:20:00,
2013-05-22 11:26:00,77.7,67.6,30.00,SE,142,1.3,1.3,71,0.00,,,0.00,VWS V14.00,2013-05-22 15:26:00,
2013-05-22 11:31:00,78.1,67.1,30.00,East,98,3.8,4.9,69,0.00,,,0.00,VWS V14.00,2013-05-22 15:31:00,
2013-05-22 11:36:00,78.4,67.0,30.00,ESE,120,4.3,6.0,68,0.00,,,0.00,VWS V14.00,2013-05-22 15:36:00,
2013-05-22 11:41:00,78.6,67.6,30.00,West,278,2.0,3.6,69,0.00,,,0.00,VWS V14.00,2013-05-22 15:41:00,
2013-05-22 11:46:00,78.6,67.2,30.00,ESE,120,2.5,7.2,68,0.00,,,0.00,VWS V14.00,2013-05-22 15:46:00,
2013-05-22 11:51:00,78.8,66.9,30.00,SE,142,2.7,3.1,67,0.00,,,0.00,VWS V14.00,2013-05-22 15:51:00,
2013-05-22 11:56:00,78.8,67.4,30.00,NE,52,2.5,2.5,68,0.00,,,0.00,VWS V14.00,2013-05-22 15:56:00,
2013-05-22 12:06:00,79.5,67.6,30.00,WSW,255,1.1,1.6,67,0.00,,,0.00,VWS V14.00,2013-05-22 16:06:00,
2013-05-22 12:11:00,79.7,67.8,30.00,SE,142,1.3,3.8,67,0.00,,,0.00,VWS V14.00,2013-05-22 16:11:00,
2013-05-22 12:16:00,79.5,67.6,30.00,ESE,120,2.7,3.1,67,0.00,,,0.00,VWS V14.00,2013-05-22 16:16:00,
2013-05-22 12:21:00,79.9,67.1,30.00,ENE,75,1.6,5.8,65,0.00,,,0.00,VWS V14.00,2013-05-22 16:21:00,
2013-05-22 12:26:00,81.1,68.7,30.00,SE,142,2.5,4.3,66,0.00,,,0.00,VWS V14.00,2013-05-22 16:26:00,
2013-05-22 12:32:00,81.0,68.1,30.00,WNW,300,2.0,4.0,65,0.00,,,0.00,VWS V14.00,2013-05-22 16:32:00,
2013-05-22 12:37:00,81.0,68.1,30.00,South,188,2.2,5.6,65,0.00,,,0.00,VWS V14.00,2013-05-22 16:37:00,
2013-05-22 12:42:00,81.3,68.4,30.00,SE,142,3.4,3.6,65,0.00,,,0.00,VWS V14.00,2013-05-22 16:42:00,
2013-05-22 12:47:00,82.2,68.8,30.00,ESE,120,4.0,4.0,64,0.00,,,0.00,VWS V14.00,2013-05-22 16:47:00,
2013-05-22 12:52:00,82.0,67.8,30.00,East,98,1.3,5.6,62,0.00,,,0.00,VWS V14.00,2013-05-22 16:52:00,
2013-05-22 12:57:00,82.2,67.0,30.00,East,98,1.3,3.8,60,0.00,,,0.00,VWS V14.00,2013-05-22 16:57:00,
2013-05-22 13:02:00,81.7,66.9,30.00,East,98,3.6,6.5,61,0.00,,,0.00,VWS V14.00,2013-05-22 17:02:00,
2013-05-22 13:07:00,81.3,67.1,30.00,SSE,165,1.1,4.0,62,0.00,,,0.00,VWS V14.00,2013-05-22 17:07:00,
2013-05-22 13:12:00,80.6,67.3,29.97,ESE,120,0.0,6.3,64,0.00,,,0.00,VWS V14.00,2013-05-22 17:12:00,
2013-05-22 13:17:00,80.8,67.9,29.97,SSE,165,1.1,4.0,65,0.00,,,0.00,VWS V14.00,2013-05-22 17:17:00,
2013-05-22 13:22:00,81.1,68.3,29.97,East,98,4.7,4.7,65,0.00,,,0.00,VWS V14.00,2013-05-22 17:22:00,
2013-05-22 13:27:00,81.0,68.1,29.97,SE,142,2.5,6.5,65,0.00,,,0.00,VWS V14.00,2013-05-22 17:27:00,
2013-05-22 13:32:00,80.6,67.3,29.97,ENE,75,3.6,5.6,64,0.00,,,0.00,VWS V14.00,2013-05-22 17:32:00,
2013-05-22 13:37:00,81.0,68.1,29.97,ESE,120,1.3,2.9,65,0.00,,,0.00,VWS V14.00,2013-05-22 17:37:00,
2013-05-22 13:43:00,80.4,67.6,29.97,SSE,165,2.5,4.3,65,0.00,,,0.00,VWS V14.00,2013-05-22 17:43:00,
2013-05-22 13:48:00,80.4,67.1,29.97,ESE,120,2.5,7.2,64,0.00,,,0.00,VWS V14.00,2013-05-22 17:48:00,
2013-05-22 13:53:00,80.1,67.2,29.97,SSE,165,1.1,5.6,65,0.00,,,0.00,VWS V14.00,2013-05-22 17:53:00,
2013-05-22 13:58:00,80.1,67.2,29.97,SW,232,0.0,2.7,65,0.00,,,0.00,VWS V14.00,2013-05-22 17:58:00,
2013-05-22 14:03:00,80.4,67.6,29.97,SE,142,3.4,4.3,65,0.00,,,0.00,VWS V14.00,2013-05-22 18:03:00,
2013-05-22 14:08:00,80.4,67.6,29.94,East,98,3.6,5.4,65,0.00,,,0.00,VWS V14.00,2013-05-22 18:08:00,
2013-05-22 14:13:00,80.2,67.0,29.94,ESE,120,2.2,5.6,64,0.00,,,0.00,VWS V14.00,2013-05-22 18:13:00,
2013-05-22 14:18:00,80.8,67.5,29.94,NE,52,2.7,5.6,64,0.00,,,0.00,VWS V14.00,2013-05-22 18:18:00,
2013-05-22 14:23:00,81.5,67.7,29.94,SE,142,1.3,5.4,63,0.00,,,0.00,VWS V14.00,2013-05-22 18:23:00,
2013-05-22 14:28:00,82.0,68.2,29.94,ESE,120,0.0,3.4,63,0.00,,,0.00,VWS V14.00,2013-05-22 18:28:00,
2013-05-22 14:33:00,82.2,67.9,29.94,ESE,120,2.7,2.7,62,0.00,,,0.00,VWS V14.00,2013-05-22 18:33:00,
2013-05-22 14:38:00,82.2,67.9,29.91,East,98,0.0,3.1,62,0.00,,,0.00,VWS V14.00,2013-05-22 18:38:00,
2013-05-22 14:43:00,82.6,68.2,29.91,SSE,165,0.0,1.6,62,0.00,,,0.00,VWS V14.00,2013-05-22 18:43:00,
2013-05-22 14:48:00,82.8,67.5,29.91,NNW,345,2.2,7.6,60,0.00,,,0.00,VWS V14.00,2013-05-22 18:48:00,
2013-05-22 14:53:00,82.4,67.1,29.91,SE,142,2.2,5.8,60,0.00,,,0.00,VWS V14.00,2013-05-22 18:53:00,
2013-05-22 14:58:00,82.0,67.3,29.91,East,98,4.0,6.9,61,0.00,,,0.00,VWS V14.00,2013-05-22 18:58:00,
2013-05-22 15:03:00,81.5,66.8,29.91,SE,142,1.1,7.8,61,0.00,,,0.00,VWS V14.00,2013-05-22 19:03:00,
2013-05-22 15:08:00,81.7,67.4,29.94,East,98,2.5,4.9,62,0.00,,,0.00,VWS V14.00,2013-05-22 19:08:00,
2013-05-22 15:13:00,82.2,67.9,29.94,East,98,3.6,4.9,62,0.00,,,0.00,VWS V14.00,2013-05-22 19:13:00,
2013-05-22 15:18:00,82.4,67.1,29.94,South,188,2.9,3.6,60,0.00,,,0.00,VWS V14.00,2013-05-22 19:18:00,
2013-05-22 15:24:00,82.6,67.8,29.94,West,278,2.5,3.6,61,0.00,,,0.00,VWS V14.00,2013-05-22 19:24:00,
2013-05-22 15:29:00,82.4,67.6,29.94,ESE,120,2.0,3.4,61,0.00,,,0.00,VWS V14.00,2013-05-22 19:29:00,
2013-05-22 15:34:00,82.6,67.3,29.94,East,98,3.1,3.1,60,0.00,,,0.00,VWS V14.00,2013-05-22 19:34:00,
2013-05-22 15:39:00,82.2,66.5,29.94,East,98,3.6,3.8,59,0.00,,,0.00,VWS V14.00,2013-05-22 19:39:00,
2013-05-22 15:44:00,82.2,67.4,29.94,South,188,2.7,2.7,61,0.00,,,0.00,VWS V14.00,2013-05-22 19:44:00,
2013-05-22 15:49:00,82.2,67.4,29.94,NE,52,6.0,6.0,61,0.00,,,0.00,VWS V14.00,2013-05-22 19:49:00,
2013-05-22 15:54:00,82.6,67.8,29.94,South,188,2.0,3.8,61,0.00,,,0.00,VWS V14.00,2013-05-22 19:54:00,
2013-05-22 15:59:00,82.9,67.6,29.94,WSW,255,0.9,2.0,60,0.00,,,0.00,VWS V14.00,2013-05-22 19:59:00,
2013-05-22 16:04:00,82.9,67.6,29.94,ENE,75,5.6,5.6,60,0.00,,,0.00,VWS V14.00,2013-05-22 20:04:00,
2013-05-22 16:09:00,82.9,68.1,29.91,SE,142,1.6,3.1,61,0.00,,,0.00,VWS V14.00,2013-05-22 20:09:00,
2013-05-22 16:14:00,82.4,67.6,29.91,SE,142,0.0,0.0,61,0.00,,,0.00,VWS V14.00,2013-05-22 20:14:00,
2013-05-22 16:19:00,82.2,67.4,29.91,SE,142,1.6,1.6,61,0.00,,,0.00,VWS V14.00,2013-05-22 20:19:00,
2013-05-22 16:25:00,82.2,67.4,29.91,SSE,165,1.6,3.1,61,0.00,,,0.00,VWS V14.00,2013-05-22 20:25:00,
2013-05-22 16:30:00,82.2,67.0,29.91,West,278,2.0,2.7,60,0.00,,,0.00,VWS V14.00,2013-05-22 20:30:00,
2013-05-22 16:35:00,82.4,66.7,29.91,SE,142,1.3,3.6,59,0.00,,,0.00,VWS V14.00,2013-05-22 20:35:00,
2013-05-22 16:40:00,82.6,66.8,29.91,East,98,2.5,5.4,59,0.00,,,0.00,VWS V14.00,2013-05-22 20:40:00,
2013-05-22 16:45:00,82.8,67.5,29.91,East,98,3.4,3.4,60,0.00,,,0.00,VWS V14.00,2013-05-22 20:45:00,
2013-05-22 16:50:00,82.6,65.8,29.91,NE,52,6.3,6.3,57,0.00,,,0.00,VWS V14.00,2013-05-22 20:50:00,
2013-05-22 16:55:00,82.6,66.8,29.88,East,98,2.9,2.9,59,0.00,,,0.00,VWS V14.00,2013-05-22 20:55:00,
2013-05-22 17:00:00,82.6,67.3,29.88,SSE,165,2.0,2.7,60,0.00,,,0.00,VWS V14.00,2013-05-22 21:00:00,
2013-05-22 17:05:00,82.4,65.7,29.88,ENE,75,6.0,6.0,57,0.00,,,0.00,VWS V14.00,2013-05-22 21:05:00,
2013-05-22 17:10:00,81.9,65.2,29.91,ENE,75,4.7,5.4,57,0.00,,,0.00,VWS V14.00,2013-05-22 21:10:00,
2013-05-22 17:15:00,81.7,65.5,29.91,ESE,120,1.1,3.8,58,0.00,,,0.00,VWS V14.00,2013-05-22 21:15:00,
2013-05-22 17:21:00,81.3,66.1,29.91,East,98,3.6,3.6,60,0.00,,,0.00,VWS V14.00,2013-05-22 21:21:00,
2013-05-22 17:26:00,81.3,66.6,29.88,ENE,75,2.9,4.3,61,0.00,,,0.00,VWS V14.00,2013-05-22 21:26:00,
2013-05-22 17:31:00,81.0,66.3,29.88,SE,142,2.2,2.7,61,0.00,,,0.00,VWS V14.00,2013-05-22 21:31:00,
2013-05-22 17:36:00,81.1,66.4,29.88,NNE,30,2.7,5.8,61,0.00,,,0.00,VWS V14.00,2013-05-22 21:36:00,
2013-05-22 17:41:00,81.0,66.7,29.88,ESE,120,1.1,2.5,62,0.00,,,0.00,VWS V14.00,2013-05-22 21:41:00,
2013-05-22 17:46:00,81.0,65.3,29.88,SSE,165,1.6,4.3,59,0.00,,,0.00,VWS V14.00,2013-05-22 21:46:00,
2013-05-22 17:51:00,81.0,64.3,29.88,East,98,3.8,4.3,57,0.00,,,0.00,VWS V14.00,2013-05-22 21:51:00,
2013-05-22 17:56:00,81.0,64.3,29.88,East,98,4.3,4.9,57,0.00,,,0.00,VWS V14.00,2013-05-22 21:56:00,
2013-05-22 18:05:00,80.8,64.6,29.88,SSE,165,2.0,2.0,58,0.00,,,0.00,VWS V14.00,2013-05-22 22:05:00,
2013-05-22 18:11:00,80.8,65.1,29.88,WNW,300,0.0,2.9,59,0.00,,,0.00,VWS V14.00,2013-05-22 22:11:00,
2013-05-22 18:16:00,80.8,65.1,29.88,SE,142,2.0,2.0,59,0.00,,,0.00,VWS V14.00,2013-05-22 22:16:00,
2013-05-22 18:21:00,80.6,65.0,29.88,SSE,165,0.0,2.0,59,0.00,,,0.00,VWS V14.00,2013-05-22 22:21:00,
2013-05-22 18:26:00,80.4,65.3,29.88,SE,142,0.9,2.0,60,0.00,,,0.00,VWS V14.00,2013-05-22 22:26:00,
2013-05-22 18:31:00,80.4,64.8,29.88,SE,142,0.0,3.1,59,0.00,,,0.00,VWS V14.00,2013-05-22 22:31:00,
2013-05-22 18:36:00,80.2,65.1,29.88,East,98,1.6,2.0,60,0.00,,,0.00,VWS V14.00,2013-05-22 22:36:00,
2013-05-22 18:41:00,80.2,65.6,29.88,ENE,75,2.5,3.1,61,0.00,,,0.00,VWS V14.00,2013-05-22 22:41:00,
2013-05-22 18:46:00,80.2,65.1,29.88,SE,142,1.6,2.9,60,0.00,,,0.00,VWS V14.00,2013-05-22 22:46:00,
2013-05-22 18:51:00,80.1,64.9,29.88,NE,52,2.9,3.6,60,0.00,,,0.00,VWS V14.00,2013-05-22 22:51:00,
2013-05-22 18:56:00,79.7,65.1,29.91,ESE,120,0.0,2.5,61,0.00,,,0.00,VWS V14.00,2013-05-22 22:56:00,
2013-05-22 19:01:00,79.3,65.2,29.91,East,98,1.1,2.7,62,0.00,,,0.00,VWS V14.00,2013-05-22 23:01:00,
2013-05-22 19:06:00,79.2,65.0,29.91,SE,142,0.0,0.0,62,0.00,,,0.00,VWS V14.00,2013-05-22 23:06:00,
2013-05-22 19:11:00,79.2,65.0,29.91,SE,142,1.6,1.6,62,0.00,,,0.00,VWS V14.00,2013-05-22 23:11:00,
2013-05-22 19:16:00,79.0,65.3,29.91,East,98,0.0,0.0,63,0.00,,,0.00,VWS V14.00,2013-05-22 23:16:00,
2013-05-22 19:21:00,78.6,65.4,29.91,SE,142,0.0,0.0,64,0.00,,,0.00,VWS V14.00,2013-05-22 23:21:00,
2013-05-22 19:26:00,78.4,65.3,29.91,ESE,120,0.9,2.5,64,0.00,,,0.00,VWS V14.00,2013-05-22 23:26:00,
2013-05-22 19:32:00,78.4,65.7,29.91,ESE,120,1.6,5.4,65,0.00,,,0.00,VWS V14.00,2013-05-22 23:32:00,
2013-05-22 19:37:00,78.3,66.0,29.91,ESE,120,2.5,3.1,66,0.00,,,0.00,VWS V14.00,2013-05-22 23:37:00,
2013-05-22 19:42:00,77.9,65.6,29.91,East,98,3.1,3.1,66,0.00,,,0.00,VWS V14.00,2013-05-22 23:42:00,
2013-05-22 19:47:00,77.5,65.3,29.91,East,98,2.7,5.4,66,0.00,,,0.00,VWS V14.00,2013-05-22 23:47:00,
2013-05-22 19:52:00,77.4,65.1,29.91,East,98,2.5,4.3,66,0.00,,,0.00,VWS V14.00,2013-05-22 23:52:00,
2013-05-22 19:57:00,77.0,65.2,29.91,East,98,2.5,3.1,67,0.00,,,0.00,VWS V14.00,2013-05-22 23:57:00,
2013-05-22 20:02:00,76.8,65.0,29.91,ESE,120,2.0,3.8,67,0.00,,,0.00,VWS V14.00,2013-05-23 00:02:00,
2013-05-22 20:07:00,76.5,65.1,29.91,East,98,1.6,4.3,68,0.00,,,0.00,VWS V14.00,2013-05-23 00:07:00,
2013-05-22 20:12:00,76.3,64.5,29.94,ESE,120,0.0,5.6,67,0.00,,,0.00,VWS V14.00,2013-05-23 00:12:00,
2013-05-22 20:17:00,75.9,64.6,29.94,East,98,0.0,2.9,68,0.00,,,0.00,VWS V14.00,2013-05-23 00:17:00,
2013-05-22 20:22:00,75.6,64.3,29.94,East,98,2.0,2.0,68,0.00,,,0.00,VWS V14.00,2013-05-23 00:22:00,
2013-05-22 20:27:00,75.4,64.5,29.94,ESE,120,3.1,4.7,69,0.00,,,0.00,VWS V14.00,2013-05-23 00:27:00,
2013-05-22 20:33:00,75.2,64.3,29.94,East,98,0.0,2.2,69,0.00,,,0.00,VWS V14.00,2013-05-23 00:33:00,
2013-05-22 20:38:00,75.0,64.6,29.94,East,98,2.9,4.0,70,0.00,,,0.00,VWS V14.00,2013-05-23 00:38:00,
2013-05-22 20:43:00,74.7,64.6,29.94,East,98,2.5,3.4,71,0.00,,,0.00,VWS V14.00,2013-05-23 00:43:00,
2013-05-22 20:48:00,74.5,64.5,29.94,East,98,1.6,3.4,71,0.00,,,0.00,VWS V14.00,2013-05-23 00:48:00,
2013-05-22 20:53:00,74.1,64.5,29.94,East,98,1.6,2.2,72,0.00,,,0.00,VWS V14.00,2013-05-23 00:53:00,
2013-05-22 20:58:00,73.9,64.3,29.94,East,98,1.1,2.5,72,0.00,,,0.00,VWS V14.00,2013-05-23 00:58:00,
2013-05-22 21:03:00,73.8,64.6,29.94,East,98,1.6,2.2,73,0.00,,,0.00,VWS V14.00,2013-05-23 01:03:00,
2013-05-22 21:08:00,73.6,64.8,29.94,East,98,0.9,2.7,74,0.00,,,0.00,VWS V14.00,2013-05-23 01:08:00,
2013-05-22 21:13:00,73.4,64.6,29.94,ESE,120,0.0,0.0,74,0.00,,,0.00,VWS V14.00,2013-05-23 01:13:00,
2013-05-22 21:18:00,73.2,64.8,29.94,East,98,0.0,2.2,75,0.00,,,0.00,VWS V14.00,2013-05-23 01:18:00,
2013-05-22 21:23:00,72.9,64.9,29.94,East,98,0.0,0.0,76,0.00,,,0.00,VWS V14.00,2013-05-23 01:23:00,
2013-05-22 21:28:00,72.5,64.9,29.94,East,98,0.0,0.0,77,0.00,,,0.00,VWS V14.00,2013-05-23 01:28:00,
2013-05-22 21:33:00,72.3,64.7,29.94,East,98,0.0,0.0,77,0.00,,,0.00,VWS V14.00,2013-05-23 01:33:00,
2013-05-22 21:38:00,72.3,65.1,29.91,East,98,0.0,0.0,78,0.00,,,0.00,VWS V14.00,2013-05-23 01:38:00,
2013-05-22 21:43:00,72.0,65.1,29.91,East,98,0.0,0.0,79,0.00,,,0.00,VWS V14.00,2013-05-23 01:43:00,
2013-05-22 21:48:00,71.8,64.9,29.91,East,98,0.0,0.0,79,0.00,,,0.00,VWS V14.00,2013-05-23 01:48:00,
2013-05-22 21:53:00,71.6,65.1,29.94,East,98,0.0,0.0,80,0.00,,,0.00,VWS V14.00,2013-05-23 01:53:00,
2013-05-22 21:58:00,71.2,65.1,29.94,East,98,0.0,0.0,81,0.00,,,0.00,VWS V14.00,2013-05-23 01:58:00,
2013-05-22 22:03:00,71.1,64.9,29.94,East,98,0.0,0.0,81,0.00,,,0.00,VWS V14.00,2013-05-23 02:03:00,
2013-05-22 22:08:00,70.9,65.1,29.94,East,98,0.0,0.0,82,0.00,,,0.00,VWS V14.00,2013-05-23 02:08:00,
2013-05-22 22:13:00,70.7,65.3,29.94,East,98,0.0,0.0,83,0.00,,,0.00,VWS V14.00,2013-05-23 02:13:00,
2013-05-22 22:18:00,70.7,65.3,29.94,East,98,0.0,0.0,83,0.00,,,0.00,VWS V14.00,2013-05-23 02:18:00,
2013-05-22 22:23:00,70.7,65.3,29.94,East,98,0.0,0.0,83,0.00,,,0.00,VWS V14.00,2013-05-23 02:23:00,
2013-05-22 22:28:00,70.9,65.5,29.94,East,98,0.0,0.0,83,0.00,,,0.00,VWS V14.00,2013-05-23 02:28:00,
2013-05-22 22:33:00,70.9,66.2,29.94,WNW,300,2.5,2.7,85,0.00,,,0.00,VWS V14.00,2013-05-23 02:33:00,
2013-05-22 22:38:00,70.9,65.5,29.97,ENE,75,2.2,3.1,83,0.00,,,0.00,VWS V14.00,2013-05-23 02:38:00,
2013-05-22 22:43:00,70.9,64.8,29.97,SSE,165,0.9,2.2,81,0.00,,,0.00,VWS V14.00,2013-05-23 02:43:00,
2013-05-22 22:48:00,70.7,63.9,29.97,West,278,1.1,2.0,79,0.00,,,0.00,VWS V14.00,2013-05-23 02:48:00,
2013-05-22 22:54:00,70.5,63.7,30.00,West,278,1.3,1.3,79,0.00,,,0.00,VWS V14.00,2013-05-23 02:54:00,
2013-05-22 22:59:00,70.3,63.5,30.00,West,278,0.0,0.0,79,0.00,,,0.00,VWS V14.00,2013-05-23 02:59:00,
2013-05-22 23:04:00,69.6,63.5,30.00,West,278,2.0,2.0,81,0.00,,,0.00,VWS V14.00,2013-05-23 03:04:00,
2013-05-22 23:09:00,68.9,63.2,29.97,SW,232,2.0,2.0,82,0.00,,,0.00,VWS V14.00,2013-05-23 03:09:00,
2013-05-22 23:14:00,68.2,63.2,29.97,WNW,300,1.6,1.6,84,0.05,,,0.05,VWS V14.00,2013-05-23 03:14:00,
2013-05-22 23:19:00,67.5,63.1,29.97,NW,322,1.3,1.6,86,0.05,,,0.05,VWS V14.00,2013-05-23 03:19:00,
2013-05-22 23:24:00,67.1,63.1,29.94,NW,322,0.0,0.0,87,0.05,,,0.05,VWS V14.00,2013-05-23 03:24:00,
2013-05-22 23:29:00,66.9,63.6,29.94,NW,322,0.0,0.0,89,0.05,,,0.05,VWS V14.00,2013-05-23 03:29:00,
2013-05-22 23:34:00,66.7,63.4,29.94,NW,322,0.0,0.0,89,0.05,,,0.05,VWS V14.00,2013-05-23 03:34:00,
2013-05-22 23:39:00,66.7,63.7,29.94,East,98,0.0,0.0,90,0.05,,,0.05,VWS V14.00,2013-05-23 03:39:00,
2013-05-22 23:44:00,66.6,64.2,29.94,East,98,0.0,0.0,92,0.05,,,0.05,VWS V14.00,2013-05-23 03:44:00,
2013-05-22 23:50:00,66.6,64.5,29.94,East,98,0.0,1.6,93,0.05,,,0.00,VWS V14.00,2013-05-23 03:50:00,
2013-05-22 23:55:00,66.4,64.6,29.91,ESE,120,0.0,0.0,94,0.09,,,0.04,VWS V14.00,2013-05-23 03:55:00,